Home   Weather   Kaarst   Past weeks

Flag for Germany Past Weather in Kaarst, North Rhine-Westphalia, Germany — Yesterday and Last 2 Weeks

Now
64 °F

Clear.


Feels Like: 64 °F
Forecast: 53 / 65 °F
Wind: 3 mph from North

Location: Monchengladbach Airport

Current Time: Aug 18, 2017 at 10:15:52 pm

Latest Report: Aug 18, 2017 at 8:20 pm


Visibility: 10 mi

Pressure: 29.89 "Hg

Humidity: 83%

Dew Point: 59 °F

Location of KaarstLocation

Past Weather in Kaarst — Graph

°F

Kaarst Temperature Yesterday

Maximum temperature yesterday: 75 °F (at 1:50 pm)
Minimum temperature yesterday: 61 °F (at 7:50 am)
Average temperature yesterday: 69 °F

High & Low Weather Summary for the Past Weeks

 TemperatureHumidityPressure
High77 °F (Aug 7, 5:20 pm)100% (Aug 5, 8:20 am)30.24 "Hg (Aug 5, 8:20 am)
Low57 °F (Aug 7, 8:20 am)36% (Aug 7, 5:20 pm)29.74 "Hg (Aug 8, 1:50 pm)
Average67 °F73%30.01 "Hg
* Reported Aug 3 8:20 pm — Aug 18 8:20 pm, Kaarst. Weather by CustomWeather, © 2017

Note: Actual official high and low records may vary slightly from our data, if they occured in-between our weather recording intervals... More about our weather records

Advertising

Kaarst Weather History for the Previous 24 Hours

Scroll right to see more
 ConditionsComfort  
Time TempWeatherWind HumidityBarometerVisibility
8:20 pm
Fri, Aug 18
64 °FClear.3 mph83%29.89 "Hg10 mi
7:50 pm66 °FClear.6 mph78%29.89 "Hg10 mi
7:20 pm66 °FClear.7 mph78%29.89 "Hg10 mi
6:50 pm66 °FClear.8 mph73%29.89 "Hg10 mi
6:20 pm66 °FClear.8 mph73%29.89 "Hg10 mi
5:50 pm66 °FClear.8 mph73%29.89 "Hg10 mi
5:20 pm66 °FPartly cloudy.7 mph78%29.89 "HgN/A
4:50 pm66 °FPassing clouds.9 mph78%29.89 "HgN/A
4:20 pm68 °FPassing clouds.9 mph78%29.86 "HgN/A
3:50 pm68 °FPartly cloudy.6 mph78%29.86 "HgN/A
3:20 pm68 °FPartly cloudy.5 mph83%29.89 "HgN/A
2:50 pm68 °FPartly cloudy.3 mph88%29.89 "HgN/A
2:20 pm68 °FPartly cloudy.5 mph83%29.89 "HgN/A
1:50 pm68 °FPartly cloudy.6 mph88%29.89 "HgN/A
1:20 pm66 °FPartly cloudy.7 mph94%29.89 "HgN/A
12:50 pm66 °FPassing clouds.5 mph94%29.89 "HgN/A
12:20 pm66 °FPassing clouds.2 mph94%29.92 "HgN/A
11:50 am66 °FPartly sunny.3 mph94%29.92 "HgN/A
11:20 am66 °FBroken clouds.2 mph94%29.92 "HgN/A
10:50 am66 °FPartly sunny.3 mph94%29.92 "HgN/A
10:20 am64 °FPartly sunny.5 mph100%29.92 "HgN/A
9:50 am64 °FPartly sunny.5 mph100%29.95 "HgN/A
9:20 am63 °FPartly sunny.5 mph100%29.92 "HgN/A
8:50 am63 °FPartly sunny.2 mph100%29.92 "HgN/A
8:20 am63 °FBroken clouds.5 mph100%29.92 "HgN/A
Weather by CustomWeather, © 2017

See weather overviewHow to use our weather pages